Location: Newark
(13.6797°N, 8.5297°E)
Time: 05:16:14
(UTC+00:00)

Courier 1B Rocket - Pass Details

Date: 21 January 2020
Orbit: 920 x 1202 km, 28.2° (Epoch: 17 February)

Event Time Altitude Azimuth Distance (km) Brightness Sun altitude
Rises 16:48:20 0° 304° (NW) 3,582 8.5 6.5°
Reaches altitude 10° 16:51:13 10° 313° (NW) 2,617 7.6 5.8°
Maximum altitude 16:56:51 34° 18° (NNE) 1,450 5.7 4.5°
Drops below altitude 10° 17:02:29 10° 82° (E) 2,616 6.7 3.3°
Sets 17:05:21 0° 91° (E) 3,579 7.4 2.6°
